Vertical_Velocity
2 2 -0 -1 2 4 -6 -10 -1 1 -2 1 1 1 -2 -0 -1 1 1 2 2 0 -1 -2 2 -2 -4 -0 -1 -1 -2 -0 1 0 1 0 -3 1 0 -1 -2 -1 -0
5 -4 -3 -3 0 1 -5 -6 -2 -0 2 2 -1 2 4 -1 -2 -0 1 -0 -1 3 1 1 -0 3 -0 -3 0 -2 -1 -4 1 -1 1 -1 -3 -0 1 0 1 1 -1
-3 0 -4 -5 -9 2 -2 -5 -4 6 -6 -7 -4 -7 -1 4 -0 -3 -2 1 4 4 2 1 1 -0 -2 4 -0 3 -0 2 -4 -1 -1 -0 -0 -3 -2 0 1 1 2
3 -5 -1 -3 -6 -11 -2 1 -6 3 1 -1 1 -3 -1 -5 -2 -1 0 2 -1 1 5 1 -0 0 -3 -1 4 -7 -1 2 -1 0 -2 0 -1 1 -5 -5 -3 2 4
1 -3 -1 -0 -6 -2 -1 -8 -3 -1 -6 -7 -6 -7 -4 3 0 -4 -5 -6 2 -1 1 3 1 -1 1 -0 -1 5 -6 1 1 -2 1 1 -3 1 -1 -2 1 2 -0
-1 3 3 3 2 -3 8 -1 -0 4 1 2 1 9 -2 -0 4 2 -4 -5 -7 1 -1 -2 0 3 -3 -2 -3 4 3 -4 1 -1 -1 -1 1 -1 0 1 -1 0 -2
0 2 -3 1 2 3 2 -0 -6 -1 6 2 4 0 1 -2 -6 3 -2 0 4 4 3 3 -2 -4 1 1 0 -3 3 1 0 2 -3 -2 -3 3 -0 -1 -1 -2 -3
1 6 3 -2 -1 4 3 4 0 2 1 -2 -15 -27 4 -6 9 -4 -7 1 2 1 3 7 7 -4 -1 1 -0 -4 -2 5 -0 1 -1 -2 1 -3 1 -2 1 -0 -1
3 4 -1 6 2 2 1 -0 -3 -0 7 3 -17 -20 -7 -6 -12 -3 -5 11 3 -1 -3 -4 11 -1 -1 4 1 2 -2 -4 2 -2 1 -0 -2 -1 1 1 -2 1 -0
6 6 1 -4 -5 -1 -3 -3 3 -1 1 -4 -1 -13 -13 -23 -1 -3 1 -3 3 -1 17 6 12 -3 -1 -2 -0 2 1 -4 -1 1 0 0 -2 -2 -0 -1 -0 -0 2
1 7 7 8 9 9 8 8 8 9 6 -6 -1 -1 -2 -2 -6 -3 2 1 3 0 2 3 6 7 7 2 -0 2 2 1 1 1 1 1 -3 -2 -1 -4 -1 -2 -1
-2 2 11 11 8 2 4 7 11 7 9 6 -4 -5 -1 4 2 -1 -3 4 2 -2 7 7 -0 18 15 3 -1 1 2 4 1 -3 -0 3 -2 -2 -0 1 -1 -1 0
-4 -1 -3 5 -4 -2 -6 -2 0 -3 -3 -5 1 4 6 -3 -3 -1 4 10 -5 6 -4 4 3 -4 14 11 5 4 -0 5 1 0 -2 0 2 2 2 -0 0 -4 -1
0 0 -4 2 3 -3 1 2 -5 -3 1 2 1 4 1 -0 2 5 2 -3 -0 2 5 -6 4 -0 3 6 14 4 3 0 7 10 1 -5 -4 -3 -1 -1 -1 -2 -3
-3 -0 1 0 -1 1 -1 0 3 -0 2 -2 -1 -1 2 0 -3 3 0 -1 2 7 -1 -4 0 3 -6 -5 -3 5 3 6 6 1 -0 3 3 -2 3 1 2 -1 3
-2 2 -1 -1 -2 -2 1 -2 -3 0 2 -2 0 0 2 -1 -0 -0 -1 4 -1 1 3 5 1 -4 -2 -0 -2 -3 5 2 -0 -1 3 4 6 -4 -4 -2 0 -3 0
1 2 5 1 1 3 3 4 5 -1 4 4 0 -2 2 1 1 0 2 2 4 -3 4 4 5 7 3 1 -2 0 -4 1 0 2 1 -1 -3 -0 -6 -2 0 3 1
-1 -1 2 1 4 2 -1 0 2 4 -5 -8 2 -1 -5 -2 1 0 2 -0 -1 -1 1 5 3 3 4 2 -4 -5 -3 -7 -2 2 3 -2 1 0 -2 -3 -1 -1 -2
-2 1 -1 2 2 1 -2 -2 0 -1 5 -2 7 -2 -7 1 -0 -1 -5 -3 -4 -4 -2 4 2 4 -0 5 5 3 0 1 -0 1 2 2 3 3 3 -0 6 1 -2
-1 0 1 0 0 3 -3 1 4 1 -2 -0 -4 6 7 -10 4 12 2 -5 4 -1 -0 -1 2 -1 -3 -5 -2 -2 -3 -3 5 0 -3 -2 1 2 0 -1 3 8 -1
-1 -1 3 4 -1 -4 1 1 5 0 1 7 -7 2 9 -14 -9 -2 4 2 1 -1 -0 0 -1 -1 -3 -2 -1 -0 -1 -4 -3 -2 3 -2 -1 3 -0 1 1 -4 2
1 -0 1 3 3 3 2 2 4 3 2 -0 2 6 0 -2 -2 4 1 -7 -6 -7 -4 -5 -6 -5 -4 -3 -1 2 -0 0 -2 1 -4 -2 1 3 -1 3 2 3 -3
2 1 -1 -0 0 2 5 4 2 -1 1 0 -1 -4 -4 -5 2 -6 -5 -1 -5 -3 2 2 -0 1 0 -3 -4 -5 -7 -8 -10 -4 0 -4 1 0 5 3 -2 4 -0
-1 -1 0 3 3 3 -1 -0 -2 -3 -2 -2 -5 -4 -2 -0 1 5 1 -2 -4 -3 -3 -6 -6 -3 1 0 -1 -2 -2 -4 -5 0 -4 -4 1 -1 -1 -4 1 0 0
-1 -0 -1 -2 -4 -5 -2 -2 -1 -2 -2 1 -2 -4 -3 -4 -1 -2 -4 -6 -6 -5 -5 -6 -6 -5 -6 -5 -5 -3 -2 -2 -3 -5 -3 -3 -0 2 1 -4 -0 -5 -5
0 0 0 -1 -0 -1 -3 -3 -3 -4 -3 -5 -5 -4 -6 -3 -4 -7 -5 -5 -4 -6 -6 -11 -9 -6 -5 -7 -6 -5 -2 1 0 -2 -1 3 0 -4 -1 2 0 -3 1
Height
5807 5814 5820 5826 5830 5835 5839 5844 5849 5849 5850 5852 5852 5854 5854 5854 5855 5855 5856 5855 5856 5855 5855 5856 5856 5858 5858 5859 5859 5860 5860 5861 5862 5859 5858 5855 5853 5853 5853 5853 5853 5854 5855
5797 5803 5810 5814 5819 5824 5830 5832 5839 5841 5842 5843 5845 5849 5849 5849 5850 5852 5852 5853 5854 5854 5853 5853 5853 5854 5854 5853 5853 5855 5855 5855 5854 5853 5852 5851 5849 5846 5845 5845 5845 5847 5846
5784 5790 5797 5803 5809 5814 5820 5823 5827 5833 5834 5834 5837 5841 5844 5844 5845 5846 5848 5849 5850 5851 5850 5848 5848 5849 5850 5850 5849 5849 5851 5850 5848 5847 5847 5847 5845 5842 5841 5840 5840 5839 5839
5775 5783 5790 5794 5798 5805 5809 5812 5816 5821 5824 5827 5827 5831 5833 5836 5838 5840 5842 5844 5845 5846 5847 5845 5844 5844 5845 5846 5845 5847 5848 5847 5844 5842 5843 5843 5843 5842 5839 5839 5836 5835 5836
5765 5771 5776 5782 5788 5793 5797 5800 5806 5812 5815 5817 5820 5821 5824 5828 5832 5833 5834 5836 5837 5838 5839 5840 5840 5839 5839 5840 5841 5840 5842 5843 5842 5839 5837 5837 5838 5838 5836 5834 5833 5834 5835
5753 5759 5763 5770 5776 5781 5786 5793 5797 5800 5805 5809 5810 5811 5815 5820 5822 5824 5827 5827 5826 5827 5830 5831 5833 5834 5834 5834 5836 5836 5834 5836 5837 5835 5832 5831 5832 5833 5834 5832 5830 5830 5830
5745 5749 5753 5757 5763 5770 5773 5778 5785 5789 5793 5798 5798 5802 5805 5806 5809 5812 5816 5817 5818 5819 5820 5822 5823 5823 5825 5827 5828 5831 5828 5828 5830 5831 5828 5827 5827 5827 5827 5826 5825 5825 5825
5740 5741 5742 5743 5746 5755 5761 5767 5772 5777 5781 5785 5787 5790 5793 5794 5789 5796 5803 5803 5809 5808 5810 5813 5814 5817 5816 5819 5821 5821 5822 5823 5824 5825 5822 5821 5820 5822 5822 5821 5820 5818 5818
5732 5733 5732 5733 5735 5739 5749 5755 5760 5767 5772 5774 5776 5777 5783 5784 5780 5784 5787 5796 5797 5797 5799 5802 5805 5801 5805 5810 5814 5813 5813 5815 5816 5816 5816 5814 5814 5814 5815 5815 5813 5813 5812
5730 5730 5730 5732 5731 5733 5738 5747 5752 5760 5759 5766 5768 5766 5763 5774 5775 5774 5778 5781 5786 5788 5790 5790 5790 5791 5793 5798 5803 5803 5805 5804 5806 5807 5809 5809 5806 5807 5807 5806 5805 5804 5803
5729 5728 5728 5730 5734 5735 5736 5739 5744 5751 5754 5756 5754 5754 5754 5758 5763 5765 5767 5772 5775 5775 5776 5777 5778 5778 5781 5785 5790 5793 5794 5793 5798 5800 5801 5800 5799 5798 5799 5797 5796 5797 5798
5723 5724 5725 5728 5731 5734 5734 5735 5738 5742 5744 5743 5742 5742 5744 5749 5753 5756 5758 5760 5762 5763 5763 5764 5764 5764 5771 5776 5779 5783 5785 5786 5787 5789 5790 5791 5788 5787 5788 5788 5788 5787 5786
5718 5719 5720 5721 5726 5727 5730 5730 5733 5734 5735 5737 5737 5738 5740 5741 5743 5746 5750 5752 5753 5755 5754 5753 5755 5758 5761 5764 5770 5772 5774 5774 5775 5776 5777 5778 5778 5776 5777 5778 5776 5777 5776
5713 5716 5716 5717 5718 5720 5721 5722 5725 5726 5728 5728 5730 5731 5734 5736 5737 5740 5744 5745 5747 5750 5750 5748 5747 5750 5754 5755 5757 5759 5760 5760 5759 5761 5763 5764 5764 5765 5765 5765 5765 5764 5766
5710 5710 5712 5712 5711 5713 5714 5715 5717 5719 5721 5722 5722 5724 5726 5728 5731 5732 5734 5736 5735 5737 5739 5743 5744 5742 5744 5746 5747 5746 5746 5746 5744 5747 5748 5749 5750 5751 5752 5752 5753 5752 5752
5705 5706 5707 5710 5710 5710 5711 5712 5713 5713 5715 5716 5716 5717 5719 5721 5721 5723 5725 5727 5727 5726 5728 5729 5732 5736 5735 5734 5734 5734 5732 5732 5733 5735 5736 5737 5737 5738 5740 5741 5740 5739 5740
5698 5701 5703 5704 5706 5707 5707 5708 5710 5710 5711 5712 5713 5713 5714 5714 5716 5717 5716 5716 5717 5719 5719 5721 5721 5722 5723 5723 5721 5719 5718 5717 5720 5723 5723 5723 5725 5726 5726 5726 5727 5726 5728
5694 5695 5697 5699 5701 5703 5703 5703 5705 5707 5708 5709 5710 5709 5709 5709 5710 5711 5711 5711 5710 5710 5711 5712 5711 5710 5710 5710 5711 5710 5708 5708 5707 5707 5707 5707 5708 5711 5712 5713 5713 5712 5714
5690 5692 5693 5694 5694 5696 5697 5699 5700 5701 5702 5702 5704 5707 5707 5706 5705 5706 5706 5707 5706 5706 5705 5704 5703 5703 5702 5702 5702 5700 5698 5696 5696 5696 5696 5696 5696 5697 5699 5699 5700 5700 5700
5684 5686 5687 5688 5688 5690 5692 5693 5695 5696 5696 5697 5699 5700 5700 5700 5700 5699 5699 5700 5700 5699 5698 5697 5695 5693 5692 5691 5689 5688 5688 5687 5687 5687 5687 5686 5687 5686 5686 5685 5686 5685 5686
5683 5682 5682 5683 5684 5686 5687 5688 5690 5691 5692 5692 5693 5694 5695 5695 5695 5693 5691 5690 5691 5690 5689 5688 5686 5684 5682 5681 5680 5679 5677 5677 5676 5675 5675 5674 5675 5675 5672 5672 5672 5672 5670
5680 5679 5680 5681 5682 5684 5684 5685 5685 5685 5686 5688 5689 5689 5688 5689 5688 5686 5684 5684 5682 5681 5681 5680 5678 5676 5674 5671 5670 5668 5666 5665 5664 5663 5662 5661 5660 5659 5658 5658 5657 5657 5658
5675 5677 5678 5679 5679 5680 5682 5683 5682 5682 5683 5684 5684 5684 5684 5682 5682 5680 5679 5677 5676 5675 5673 5672 5669 5667 5665 5663 5661 5659 5658 5656 5654 5653 5651 5650 5648 5647 5646 5645 5645 5644 5644
5671 5672 5672 5671 5673 5675 5676 5678 5679 5679 5679 5679 5679 5677 5676 5675 5674 5673 5672 5671 5670 5669 5667 5665 5662 5659 5656 5652 5649 5648 5646 5645 5644 5643 5641 5639 5638 5637 5635 5634 5633 5632 5631
5666 5666 5667 5667 5668 5669 5670 5671 5672 5673 5672 5672 5670 5670 5669 5668 5668 5667 5665 5663 5662 5661 5659 5656 5654 5650 5646 5643 5641 5638 5635 5634 5634 5633 5632 5630 5628 5627 5626 5625 5623 5622 5621
5659 5660 5661 5661 5661 5661 5661 5663 5664 5664 5664 5663 5662 5662 5661 5660 5659 5657 5655 5654 5652 5650 5648 5646 5644 5640 5637 5635 5632 5629 5626 5625 5623 5622 5621 5621 5620 5619 5618 5616 5615 5613 5612